Date String (YYYY-MM-DD hh:mm:ss) UTC,Instrument flags,absolute air pressure of the measurement (hPa),sample flow rate (lpm),inlet stack bypass flow (lpm),air temperature of the measurement (°C),ambient temperature measured by the external sensor (°C),aerosol sample conditioner tube jacket temperature (°C),OPC LED temperature (°C),internal box temperature (°C),relative humidity of the measurement (%),span deviation,mass concentration of particles derived from Lorenz-Mie calculation of OPC scattering (μg/m³),mass concentration of particles derived from Lorenz-Mie calculation of OPC scattering (μg/m³),mass concentration of particles derived from Lorenz-Mie calculation of OPC scattering (μg/m³)
DateTimeUTC,F1_M11,P_M11,Q1_M11,Q2_M11,T1_M11,T2_M11,T3_M11,T4_M11,T5_M11,U1_M11,ZSPAN_M11,X2_M11,X0_M11,X1_M11
2023-10-16 22:00:00,SystemResetWarning,0834.7,4.99,000.00,028.2,026.4,000.0,036.7,029.9,14.4,0000.0,0003.19,0009.29,0002.40
2023-10-16 22:01:00,SystemResetWarning,0834.6,5.01,000.00,028.2,026.6,000.0,036.7,030.0,14.4,0000.0,0003.21,0009.58,0002.41
2023-10-16 22:02:00,SystemResetWarning,0834.6,5.00,000.00,028.3,026.9,000.0,036.7,030.1,14.4,0000.0,0003.19,0009.84,0002.41
2023-10-16 22:03:00,SystemResetWarning,0834.7,5.00,000.00,028.3,027.1,000.0,036.7,030.1,14.4,0000.0,0003.18,0009.90,0002.42
2023-10-16 22:04:00,SystemResetWarning,0834.6,5.01,000.00,028.4,027.3,000.0,036.7,030.2,14.3,0000.0,0003.19,0009.22,0002.43
2023-10-16 22:05:00,SystemResetWarning,0834.7,4.99,000.00,028.4,027.4,000.0,036.7,030.3,14.2,0000.0,0003.18,0009.14,0002.44
2023-10-16 22:06:00,SystemResetWarning,0834.6,4.99,000.00,028.5,027.3,000.0,036.8,030.3,14.2,0000.0,0003.15,0008.62,0002.45
2023-10-16 22:07:00,SystemResetWarning,0834.7,5.00,000.00,028.4,025.6,000.0,036.7,030.2,14.3,0000.0,0003.13,0008.24,0002.43
2023-10-16 22:08:00,SystemResetWarning,0835.1,5.01,000.00,028.4,024.1,000.0,036.6,029.9,14.5,0000.0,0003.14,0009.33,0002.41
2023-10-16 22:09:00,SystemResetWarning,0835.1,5.01,000.00,028.3,024.1,000.0,036.6,029.8,14.7,0000.0,0003.12,0009.35,0002.41
2023-10-16 22:10:00,SystemResetWarning,0835.1,5.01,000.00,028.2,024.5,000.0,036.6,029.6,14.6,0000.0,0003.15,0009.85,0002.42
2023-10-16 22:11:00,SystemResetWarning,0835.0,5.00,000.00,028.1,024.9,000.0,036.6,029.7,14.5,0000.0,0003.17,0010.48,0002.43
2023-10-16 22:12:00,SystemResetWarning,0835.1,5.00,000.00,028.1,025.4,000.0,036.6,029.7,14.5,0000.0,0003.19,0010.31,0002.43
2023-10-16 22:13:00,SystemResetWarning,0835.0,5.01,000.00,028.1,025.8,000.0,036.6,029.8,14.5,0000.0,0003.20,0009.96,0002.43
2023-10-16 22:14:00,SystemResetWarning,0834.6,4.99,000.00,028.2,026.2,000.0,036.6,029.9,14.4,0000.0,0003.24,0010.42,0002.44
2023-10-16 22:15:00,SystemResetWarning,0834.8,4.99,000.00,028.2,026.5,000.0,036.6,030.0,14.4,0000.0,0003.28,0010.92,0002.43
2023-10-16 22:16:00,SystemResetWarning,0834.7,4.99,000.00,028.2,026.8,000.0,036.7,030.0,14.3,0000.0,0003.33,0011.56,0002.43
2023-10-16 22:17:00,SystemResetWarning,0834.7,5.00,000.00,028.3,027.0,000.0,036.7,030.1,14.2,0000.0,0003.36,0012.30,0002.44
2023-10-16 22:18:00,SystemResetWarning,0834.6,5.01,000.00,028.3,027.2,000.0,036.7,030.2,14.3,0000.0,0003.35,0012.19,0002.49
2023-10-16 22:19:00,SystemResetWarning,0834.8,5.00,000.00,028.4,027.3,000.0,036.7,030.2,14.2,0000.0,0003.33,0011.12,0002.52
2023-10-16 22:20:00,SystemResetWarning,0834.7,4.98,000.00,028.4,027.5,000.0,036.7,030.3,14.2,0000.0,0003.35,0011.18,0002.53
2023-10-16 22:21:00,SystemResetWarning,0834.6,5.00,000.00,028.5,026.5,000.0,036.7,030.2,14.3,0000.0,0003.37,0010.86,0002.53
2023-10-16 22:22:00,SystemResetWarning,0834.6,5.00,000.00,028.4,024.5,000.0,036.7,029.9,14.2,0000.0,0003.36,0010.71,0002.51
2023-10-16 22:23:00,SystemResetWarning,0834.6,5.01,000.00,028.3,024.1,000.0,036.6,029.8,14.2,0000.0,0003.34,0010.57,0002.51
2023-10-16 22:24:00,SystemResetWarning,0834.8,5.01,000.00,028.2,024.4,000.0,036.6,029.7,14.3,0000.0,0003.31,0010.40,0002.51
2023-10-16 22:25:00,SystemResetWarning,0835.1,4.99,000.00,028.1,024.8,000.0,036.6,029.6,14.4,0000.0,0003.27,0009.98,0002.50
2023-10-16 22:26:00,SystemResetWarning,0835.1,5.00,000.00,028.1,025.2,000.0,036.6,029.7,14.5,0000.0,0003.24,0009.49,0002.49
2023-10-16 22:27:00,SystemResetWarning,0835.1,5.01,000.00,028.1,025.7,000.0,036.6,029.8,14.4,0000.0,0003.22,0008.76,0002.48
2023-10-16 22:28:00,SystemResetWarning,0835.1,5.00,000.00,028.1,026.1,000.0,036.6,029.9,14.4,0000.0,0003.19,0008.38,0002.45
2023-10-16 22:29:00,SystemResetWarning,0835.1,5.00,000.00,028.2,026.4,000.0,036.6,029.9,14.4,0000.0,0003.18,0008.20,0002.41
2023-10-16 22:30:00,SystemResetWarning,0835.1,5.00,000.00,028.2,026.7,000.0,036.6,030.0,14.6,0000.0,0003.20,0008.07,0002.38
2023-10-16 22:31:00,SystemResetWarning,0835.1,5.00,000.00,028.3,026.9,000.0,036.7,030.1,14.6,0000.0,0003.20,0007.83,0002.36
2023-10-16 22:32:00,SystemResetWarning,0835.0,5.00,000.00,028.3,027.1,000.0,036.7,030.1,14.5,0000.0,0003.18,0008.25,0002.34
2023-10-16 22:33:00,SystemResetWarning,0835.0,5.01,000.00,028.4,027.3,000.0,036.7,030.2,14.2,0000.0,0003.16,0008.29,0002.31
2023-10-16 22:34:00,SystemResetWarning,0834.8,5.00,000.00,028.4,027.4,000.0,036.7,030.3,14.1,0000.0,0003.17,0008.48,0002.30
2023-10-16 22:35:00,SystemResetWarning,0834.9,4.98,000.00,028.5,027.1,000.0,036.7,030.3,14.0,0000.0,0003.20,0008.72,0002.28
2023-10-16 22:36:00,SystemResetWarning,0835.0,5.01,000.00,028.4,025.5,000.0,036.7,030.2,14.1,0000.0,0003.23,0008.86,0002.26
2023-10-16 22:37:00,SystemResetWarning,0834.9,5.01,000.00,028.4,025.1,000.0,036.7,030.1,14.2,0000.0,0003.28,0009.07,0002.24
2023-10-16 22:38:00,SystemResetWarning,0834.5,5.00,000.00,028.3,025.2,000.0,036.6,029.9,14.2,0000.0,0003.29,0009.21,0002.23
2023-10-16 22:39:00,SystemResetWarning,0834.5,5.00,000.00,028.3,025.6,000.0,036.7,029.9,14.3,0000.0,0003.32,0009.45,0002.23
2023-10-16 22:40:00,SystemResetWarning,0834.5,4.99,000.00,028.3,025.9,000.0,036.7,029.9,14.3,0000.0,0003.32,0009.60,0002.24
2023-10-16 22:41:00,SystemResetWarning,0834.5,5.00,000.00,028.3,026.3,000.0,036.7,030.0,14.4,0000.0,0003.33,0009.80,0002.23
2023-10-16 22:42:00,SystemResetWarning,0834.5,5.00,000.00,028.3,026.6,000.0,036.7,030.1,14.4,0000.0,0003.35,0010.17,0002.23
2023-10-16 22:43:00,SystemResetWarning,0834.5,5.00,000.00,028.4,026.8,000.0,036.7,030.1,14.4,0000.0,0003.37,0009.94,0002.23
2023-10-16 22:44:00,SystemResetWarning,0834.5,4.99,000.00,028.4,027.1,000.0,036.8,030.2,14.2,0000.0,0003.39,0009.31,0002.25
2023-10-16 22:45:00,SystemResetWarning,0834.5,5.00,000.00,028.5,027.3,000.0,036.8,030.3,14.1,0000.0,0003.42,0009.02,0002.25
2023-10-16 22:46:00,SystemResetWarning,0834.5,4.99,000.00,028.5,027.2,000.0,036.8,030.3,14.2,0000.0,0003.37,0008.95,0002.25
2023-10-16 22:47:00,SystemResetWarning,0834.5,4.99,000.00,028.5,025.6,000.0,036.8,030.2,14.0,0000.0,0003.34,0010.12,0002.25
2023-10-16 22:48:00,SystemResetWarning,0834.5,5.02,000.00,028.4,024.2,000.0,036.7,030.0,14.1,0000.0,0003.31,0010.20,0002.26
2023-10-16 22:49:00,SystemResetWarning,0834.5,5.01,000.00,028.3,024.2,000.0,036.6,029.9,14.3,0000.0,0003.25,0010.20,0002.26
2023-10-16 22:50:00,SystemResetWarning,0834.5,5.00,000.00,028.2,024.5,000.0,036.6,029.7,14.4,0000.0,0003.21,0010.59,0002.25
2023-10-16 22:51:00,SystemResetWarning,0834.5,5.00,000.00,028.2,025.0,000.0,036.6,029.7,14.4,0000.0,0003.21,0010.57,0002.25
2023-10-16 22:52:00,SystemResetWarning,0834.5,5.01,000.00,028.2,025.4,000.0,036.6,029.7,14.4,0000.0,0003.19,0010.69,0002.25
2023-10-16 22:53:00,SystemResetWarning,0834.5,5.00,000.00,028.2,025.8,000.0,036.6,029.8,14.5,0000.0,0003.15,0011.66,0002.25
2023-10-16 22:54:00,SystemResetWarning,0834.5,4.99,000.00,028.2,026.2,000.0,036.6,029.9,14.6,0000.0,0003.11,0011.62,0002.24
2023-10-16 22:55:00,SystemResetWarning,0834.5,4.99,000.00,028.2,026.5,000.0,036.7,030.0,14.7,0000.0,0003.10,0012.59,0002.23
2023-10-16 22:56:00,SystemResetWarning,0834.5,5.01,000.00,028.3,026.8,000.0,036.7,030.1,14.7,0000.0,0003.10,0015.10,0002.24
2023-10-16 22:57:00,SystemResetWarning,0834.5,5.01,000.00,028.3,027.0,000.0,036.7,030.1,14.5,0000.0,0003.14,0016.44,0002.24
2023-10-16 22:58:00,SystemResetWarning,0834.5,5.01,000.00,028.4,027.2,000.0,036.7,030.2,14.4,0000.0,0003.17,0015.65,0002.25
2023-10-16 22:59:00,SystemResetWarning,0834.5,4.99,000.00,028.4,027.4,000.0,036.7,030.3,14.5,0000.0,0003.21,0015.39,0002.27
